星链-36377(STARLINK-36377)

导读

STARLINK-36377是美国SpaceX星链星座的卫星,于2026年2月15日发射升空,属于Starlink项目的组网卫星。星链系统依托低轨卫星群,为全球提供高速互联网覆盖,该卫星加入后将进一步扩充星座规模,提升全球通信服务覆盖密度与稳定性,支撑星链的商用、民用及特殊场景服务能力。

基本信息
目录编号:
67812
目录名称:
STARLINK-36377
国际标识:
2026-032R
轨道中心:
EARTH
卫星名称:
星链-36377
卫星全名:
星链-36377(STARLINK-36377)
卫星状态:
在轨 (已飞行118 天)
发射日期:
2026-02-15 UTC
国别 :
美国 (US)
星等 :
--
轨道信息
数据来源 国际轨道数据 AOE轨道数据
星历时间 2026-06-12T13:38:26+0800
23小时前
查看轨道信息
2026-06-12T07:00:00+0800
1天前
查看轨道信息
半长轴 6843.698km 6843.74km
偏心率 0.0001928 0.0001138
轨道倾角 97.285° 97.286°
近地点辐角 74.854° 64.041°
升交点赤经 351.123° 350.854°
平近点角 285.291° 209.639°
近地点 464.241km 464.824km
远地点 466.881km 466.382km
周期 93.907分钟 93.907分钟
每日圈数 15.334393 15.33425
详细信息
固有亮度:
5
最大亮度:
2.5
卫星平台:
Starlink V1.0
覆盖范围:
全球
运营商:
太空探索技术公司
运营商所在国:
美国
制造商(研发单位):
太空探索技术公司
制造商所在国:
美国
使用方式:
暂无
卫星简介
Starlink 计划是 SpaceX 推出的全球卫星互联网项目,通过发射低轨道卫星,为全球尤其是偏远地区提供高速、低延迟的互联网服务。自 2019 年起,Starlink 已部署数千颗卫星,旨在缩小全球数字鸿沟,推动互联网普及。该项目还为军事、航空等行业提供通信支持,带来广泛经济效益。
2D轨道图
3D轨道图
轨道高度分析图
轨道倾角分析图
轨道综合分析图
查看轨道综合分析图